period_start,C,m1,H,J0,J1,J2,J3,J4,J5,JA,JB,JC,JD,JJ,JK,JN,#
2018-08-16 00:03:08,0.21,8.11,0.00,30.50,34.25,36.71,13.60,53.98,1009.27,1991.91,1363.52,1641.98,1785.77,600.04,577.18,6.44,0000 0000 0000 0000 000000
2018-08-16 00:08:09,0.16,8.12,0.00,30.50,34.25,36.69,13.53,53.86,1009.11,1991.89,1362.39,1641.07,1784.75,599.98,577.04,6.49,0000 0000 0000 0000 000000
2018-08-16 00:13:11,0.17,8.13,0.00,30.52,34.25,36.68,13.60,53.91,1008.90,1991.92,1361.39,1640.27,1783.89,600.04,576.89,6.54,0000 0000 0000 0000 000000
2018-08-16 00:18:12,0.17,8.14,0.00,30.51,34.24,36.69,13.56,54.01,1008.82,1991.95,1360.27,1639.53,1782.96,599.87,576.71,6.59,0000 0000 0000 0000 000000
2018-08-16 00:23:13,0.18,8.14,0.00,30.47,34.23,36.73,13.64,53.94,1008.80,1991.97,1358.98,1638.70,1781.97,599.98,576.82,6.64,0000 0000 0000 0000 000000
2018-08-16 00:28:14,0.20,8.15,0.00,30.45,34.23,36.78,13.66,53.97,1008.78,1991.94,1357.71,1637.72,1780.87,600.31,577.25,6.69,0000 0000 0000 0000 000000
2018-08-16 00:33:16,0.30,8.17,0.00,30.44,34.22,36.82,13.58,54.12,1008.78,1991.94,1356.03,1636.51,1779.51,600.17,577.07,6.74,0000 0000 0000 0000 000000
2018-08-16 00:38:17,0.32,8.18,0.00,30.44,34.22,36.80,13.57,54.13,1008.77,1991.96,1353.69,1635.05,1777.73,600.06,577.04,6.79,0000 0000 0000 0000 000000
2018-08-16 00:43:18,0.17,8.20,0.00,30.45,34.22,36.78,13.55,54.09,1008.56,1991.97,1352.27,1633.97,1776.51,600.24,576.97,6.84,0000 0000 0000 0000 000000
2018-08-16 00:48:19,0.16,8.21,0.00,30.48,34.22,36.76,13.53,54.16,1008.55,1991.97,1351.15,1633.07,1775.67,599.68,576.49,6.89,0000 0000 0000 0000 000000
2018-08-16 00:53:21,0.17,8.22,0.00,30.51,34.22,36.66,13.52,54.08,1008.54,1991.96,1350.03,1632.23,1774.72,599.78,576.39,6.94,0000 0000 0000 0000 000000
2018-08-16 00:58:22,0.14,8.22,0.00,30.52,34.22,36.61,13.55,54.17,1008.67,1991.87,1349.06,1631.43,1773.71,599.86,576.61,6.99,0000 0000 0000 0000 000000
2018-08-16 01:03:23,0.04,8.23,0.00,30.55,34.22,36.60,13.59,54.10,1008.55,1991.45,1348.42,1630.90,1772.98,600.31,576.89,7.04,0000 0000 0000 0000 000000
2018-08-16 01:08:24,0.08,8.23,0.00,30.55,34.22,36.60,13.58,53.97,1008.34,1991.19,1348.00,1630.17,1772.27,600.37,576.90,7.09,0000 0000 0000 0000 000000
2018-08-16 01:13:26,0.08,8.23,0.00,30.52,34.22,36.62,13.51,54.20,1008.33,1991.29,1347.26,1629.99,1772.00,599.85,576.27,7.14,0000 0000 0000 0000 000000
2018-08-16 01:18:27,0.12,8.24,0.00,30.49,34.22,36.64,13.56,54.06,1008.33,1991.30,1346.73,1629.56,1771.51,599.79,576.26,7.19,0000 0000 0000 0000 000000
2018-08-16 01:23:29,0.05,8.24,0.00,30.45,34.22,36.66,13.49,54.11,1008.32,1991.22,1346.00,1629.01,1771.00,599.62,576.36,7.25,0000 0000 0000 0000 000000
2018-08-16 01:28:30,0.15,8.25,0.00,30.42,34.21,36.70,13.51,54.04,1008.32,1991.26,1345.21,1628.69,1770.35,599.79,576.58,7.30,0000 0000 0000 0000 000000
2018-08-16 01:33:31,0.11,8.26,0.00,30.42,34.20,36.75,13.63,54.19,1008.32,1991.55,1344.78,1628.04,1770.00,600.34,577.05,7.35,0000 0000 0000 0000 000000
2018-08-16 01:38:33,0.11,8.26,0.00,30.43,34.20,36.75,13.60,54.08,1008.32,1991.85,1344.03,1627.95,1769.57,600.21,576.83,7.40,0000 0000 0000 0000 000000
2018-08-16 01:43:34,0.14,8.27,0.00,30.45,34.20,36.66,13.52,53.99,1008.32,1991.94,1343.42,1627.31,1769.01,600.13,576.67,7.45,0000 0000 0000 0000 000000
2018-08-16 01:48:35,0.04,8.27,0.00,30.47,34.20,36.63,13.59,54.02,1008.32,1991.88,1342.99,1626.98,1768.33,599.99,576.65,7.50,0000 0000 0000 0000 000000
2018-08-16 01:53:37,0.14,8.28,0.00,30.49,34.20,36.60,13.58,54.02,1008.32,1991.93,1342.16,1626.25,1767.97,599.87,576.46,7.55,0000 0000 0000 0000 000000
2018-08-16 01:58:38,0.17,8.29,0.00,30.50,34.19,36.59,13.53,53.96,1008.32,1991.91,1341.08,1625.51,1767.05,599.60,576.23,7.60,0000 0000 0000 0000 000000
2018-08-16 02:03:40,0.12,8.29,0.00,30.52,34.19,36.58,13.53,53.82,1008.32,1991.89,1340.20,1625.01,1766.16,599.88,576.35,7.65,0000 0000 0000 0000 000000
2018-08-16 02:08:41,0.07,8.30,0.00,30.55,34.19,36.57,13.51,53.88,1008.32,1991.84,1339.78,1624.54,1765.86,599.69,576.18,7.70,0000 0000 0000 0000 000000
2018-08-16 02:13:42,0.06,8.30,0.00,30.56,34.19,36.56,13.56,53.99,1008.31,1991.60,1339.07,1624.02,1765.10,600.20,576.50,7.75,0000 0000 0000 0000 000000
2018-08-16 02:18:44,0.03,8.30,0.00,30.58,34.20,36.56,13.50,54.06,1008.31,1991.56,1338.74,1623.93,1764.92,599.83,576.23,7.80,0000 0000 0000 0000 000000
2018-08-16 02:23:46,0.13,8.31,0.00,30.60,34.20,36.57,13.57,53.81,1008.31,1991.53,1338.01,1623.19,1764.16,599.87,576.37,7.85,0000 0000 0000 0000 000000
2018-08-16 02:28:47,0.08,8.31,0.00,30.62,34.20,36.58,13.47,53.89,1008.31,1991.56,1337.38,1622.97,1763.96,599.60,576.04,7.90,0000 0000 0000 0000 000000
2018-08-16 02:33:48,0.05,8.32,0.00,30.63,34.20,36.58,13.44,53.86,1008.31,1991.47,1337.00,1622.52,1763.27,599.79,576.17,7.95,0000 0000 0000 0000 000000
2018-08-16 02:38:50,0.07,8.32,0.00,30.65,34.20,36.60,13.56,53.99,1008.30,1991.37,1336.50,1622.01,1763.00,599.87,576.15,8.00,0000 0000 0000 0000 000000
2018-08-16 02:43:51,0.03,8.32,0.00,30.67,34.22,36.60,13.61,53.87,1008.22,1991.36,1336.01,1621.95,1762.77,600.56,576.64,8.05,0000 0000 0000 0000 000000
2018-08-16 02:48:52,0.11,8.33,0.00,30.69,34.22,36.61,13.57,53.91,1008.20,1991.19,1335.48,1621.28,1762.08,600.25,576.36,8.10,0000 0000 0000 0000 000000
2018-08-16 02:53:53,0.02,8.33,0.00,30.70,34.23,36.62,13.52,53.94,1008.23,1991.07,1335.00,1621.00,1761.97,600.04,576.13,8.15,0000 0000 0000 0000 000000
2018-08-16 02:58:55,0.09,8.33,0.00,30.70,34.25,36.64,13.46,53.91,1008.16,1991.14,1334.52,1620.94,1761.54,599.72,575.78,8.20,0000 0000 0000 0000 000000
2018-08-16 03:03:56,0.07,8.34,0.00,30.72,34.25,36.65,13.53,53.89,1008.18,1991.11,1334.01,1620.23,1761.02,600.06,576.07,8.25,0000 0000 0000 0000 000000
2018-08-16 03:08:58,0.05,8.34,0.00,30.74,34.27,36.66,13.49,54.02,1008.07,1991.03,1333.77,1619.99,1760.57,600.01,575.90,8.30,0000 0000 0000 0000 000000
2018-08-16 03:13:59,0.10,8.34,0.00,30.75,34.27,36.66,13.56,54.23,1007.96,1991.01,1333.06,1619.58,1760.02,599.95,576.00,8.35,0000 0000 0000 0000 000000
2018-08-16 03:19:00,0.02,8.35,0.00,30.76,34.29,36.68,13.53,54.02,1007.89,1991.00,1332.97,1619.02,1759.97,599.89,575.71,8.40,0000 0000 0000 0000 000000
2018-08-16 03:24:01,0.09,8.35,0.00,30.77,34.30,36.69,13.59,54.10,1007.84,1991.00,1332.28,1618.99,1759.51,600.05,575.83,8.45,0000 0000 0000 0000 000000
2018-08-16 03:29:03,0.06,8.35,0.00,30.79,34.30,36.70,13.53,54.02,1007.84,1991.00,1332.00,1618.54,1759.03,600.12,575.75,8.50,0000 0000 0000 0000 000000
2018-08-16 03:34:04,0.07,8.36,0.00,30.80,34.32,36.71,13.44,54.12,1007.83,1991.00,1331.65,1618.02,1758.81,599.45,575.26,8.55,0000 0000 0000 0000 000000
2018-08-16 03:39:05,0.06,8.36,0.00,30.81,34.32,36.72,13.50,54.06,1007.83,1991.00,1331.04,1617.98,1758.08,599.64,575.36,8.60,0000 0000 0000 0000 000000
2018-08-16 03:44:07,0.03,8.36,0.00,30.82,34.34,36.73,13.55,54.22,1007.83,1991.00,1330.96,1617.68,1758.00,599.91,575.58,8.65,0000 0000 0000 0000 000000
2018-08-16 03:49:08,0.12,8.37,0.00,30.82,34.35,36.74,13.58,54.30,1007.83,1991.00,1330.23,1617.05,1757.60,600.50,576.18,8.70,0000 0000 0000 0000 000000
2018-08-16 03:54:10,0.02,8.37,0.00,30.84,34.35,36.75,13.54,54.18,1007.83,1991.00,1329.98,1616.99,1757.04,600.22,575.82,8.75,0000 0000 0000 0000 000000
2018-08-16 03:59:11,0.09,8.37,0.00,30.86,34.37,36.76,13.57,54.13,1007.83,1990.99,1329.62,1616.54,1756.95,600.25,575.74,8.80,0000 0000 0000 0000 000000
2018-08-16 04:04:12,0.08,8.38,0.00,30.87,34.37,36.76,13.54,54.16,1007.83,1990.99,1329.04,1616.03,1756.28,599.79,575.38,8.85,0000 0000 0000 0000 000000
2018-08-16 04:09:14,0.00,8.38,0.00,30.88,34.39,36.78,13.53,54.06,1007.83,1990.97,1328.96,1615.98,1756.00,600.03,575.68,8.90,0000 0000 0000 0000 000000
2018-08-16 04:14:15,0.10,8.38,0.00,30.90,34.40,36.79,13.55,53.99,1007.83,1990.94,1328.39,1615.51,1755.84,600.35,575.77,8.95,0000 0000 0000 0000 000000
2018-08-16 04:19:16,0.06,8.39,0.00,30.92,34.41,36.80,13.48,54.02,1007.83,1990.89,1328.01,1615.03,1755.14,600.05,575.58,9.00,0000 0000 0000 0000 000000
2018-08-16 04:24:18,-0.06,8.39,0.00,30.94,34.42,36.81,13.52,54.11,1007.83,1990.50,1327.98,1614.96,1754.98,599.41,575.02,9.05,0000 0000 0000 0000 000000
2018-08-16 04:29:19,0.10,8.39,0.00,30.95,34.43,36.82,13.51,54.01,1007.84,1990.22,1327.48,1614.48,1754.57,599.97,575.45,9.10,0000 0000 0000 0000 000000
2018-08-16 04:34:20,0.03,8.39,0.00,30.95,34.45,36.84,13.52,54.03,1007.85,1990.09,1327.03,1614.05,1754.06,600.18,575.64,9.15,0000 0000 0000 0000 000000
2018-08-16 04:39:21,0.01,8.39,0.00,30.95,34.45,36.85,13.52,53.97,1007.87,1990.14,1326.98,1614.00,1754.00,599.98,575.47,9.20,0000 0000 0000 0000 000000
2018-08-16 04:44:22,0.02,8.39,0.00,30.97,34.47,36.86,13.56,53.90,1007.95,1990.11,1326.75,1613.96,1753.93,599.73,575.31,9.25,0000 0000 0000 0000 000000
2018-08-16 04:49:24,0.13,8.40,0.00,30.97,34.47,36.87,13.48,53.95,1007.87,1990.10,1326.12,1613.40,1753.29,600.11,575.46,9.30,0000 0000 0000 0000 000000
2018-08-16 04:54:25,0.01,8.40,0.00,30.99,34.50,36.89,13.50,53.76,1007.86,1990.01,1326.01,1613.02,1753.00,600.18,575.47,9.35,0000 0000 0000 0000 000000
2018-08-16 04:59:26,0.01,8.40,0.00,31.00,34.50,36.90,13.46,53.96,1007.85,1990.00,1326.00,1612.99,1752.80,599.82,575.25,9.40,0000 0000 0000 0000 000000
2018-08-16 05:04:28,0.04,8.40,0.00,31.01,34.51,36.90,13.44,53.89,1007.83,1989.98,1325.96,1612.85,1752.18,599.53,574.82,9.45,0000 0000 0000 0000 000000
2018-08-16 05:09:29,0.06,8.41,0.00,31.02,34.52,36.91,13.49,53.86,1007.83,1989.98,1325.66,1612.36,1752.02,599.75,575.08,9.51,0000 0000 0000 0000 000000
2018-08-16 05:14:30,0.04,8.41,0.00,31.05,34.54,36.93,13.52,53.82,1007.83,1989.98,1325.22,1612.09,1752.00,599.72,575.02,9.56,0000 0000 0000 0000 000000
2018-08-16 05:19:32,0.00,8.41,0.00,31.06,34.55,36.94,13.50,53.98,1007.83,1989.91,1325.03,1612.01,1751.99,600.03,575.25,9.61,0000 0000 0000 0000 000000
2018-08-16 05:24:33,0.00,8.41,0.00,31.07,34.56,36.95,13.52,53.88,1007.83,1989.91,1325.00,1612.00,1751.91,599.74,575.12,9.66,0000 0000 0000 0000 000000
2018-08-16 05:29:34,0.02,8.41,0.00,31.09,34.57,36.96,13.51,53.83,1007.83,1989.87,1325.00,1612.00,1751.58,600.29,575.62,9.71,0000 0000 0000 0000 000000
2018-08-16 05:34:35,0.01,8.41,0.00,31.10,34.58,36.98,13.52,53.90,1007.83,1989.74,1324.98,1611.85,1751.07,600.06,575.18,9.76,0000 0000 0000 0000 000000
2018-08-16 05:39:36,0.04,8.41,0.00,31.10,34.60,36.99,13.53,53.88,1007.84,1989.74,1324.89,1611.45,1751.01,599.87,575.03,9.81,0000 0000 0000 0000 000000
2018-08-16 05:44:37,0.04,8.42,0.00,31.12,34.60,37.00,13.43,53.76,1007.83,1989.76,1324.53,1611.11,1751.00,599.71,574.73,9.86,0000 0000 0000 0000 000000
2018-08-16 05:49:38,-0.03,8.42,0.00,31.13,34.62,37.01,13.58,53.73,1007.84,1989.37,1324.13,1611.01,1750.96,600.07,575.11,9.91,0000 0000 0000 0000 000000
2018-08-16 05:54:39,0.01,8.41,0.00,31.15,34.63,37.03,13.53,53.84,1007.83,1989.25,1324.01,1611.00,1750.90,600.06,575.15,9.96,0000 0000 0000 0000 000000
2018-08-16 05:59:40,0.02,8.42,0.00,31.15,34.65,37.04,13.48,53.69,1007.83,1989.30,1324.00,1610.98,1750.59,599.78,574.75,10.01,0000 0000 0000 0000 000000
2018-08-16 06:04:42,0.02,8.42,0.00,31.17,34.65,37.05,13.46,53.71,1007.83,1989.07,1324.00,1610.64,1750.04,600.11,575.10,10.06,0000 0000 0000 0000 000000
2018-08-16 06:09:43,0.02,8.42,0.00,31.20,34.67,37.06,13.47,53.63,1007.83,1989.04,1323.98,1610.13,1750.00,599.52,574.57,10.11,0000 0000 0000 0000 000000
2018-08-16 06:14:44,0.00,8.42,0.00,31.20,34.68,37.08,13.43,53.66,1007.83,1989.01,1323.95,1610.00,1749.97,599.72,574.72,10.16,0000 0000 0000 0000 000000
2018-08-16 06:19:45,0.03,8.42,0.00,31.22,34.70,37.10,13.53,53.57,1007.83,1989.00,1323.78,1610.00,1749.73,600.05,575.03,10.21,0000 0000 0000 0000 000000
2018-08-16 06:24:47,0.04,8.42,0.00,31.23,34.71,37.12,13.50,53.67,1007.83,1989.00,1323.37,1609.99,1749.16,599.58,574.61,10.26,0000 0000 0000 0000 000000
2018-08-16 06:29:49,0.02,8.42,0.00,31.24,34.72,37.12,13.58,53.80,1007.83,1989.00,1323.11,1609.91,1749.05,599.81,574.73,10.31,0000 0000 0000 0000 000000
2018-08-16 06:34:50,0.04,8.43,0.00,31.25,34.74,37.14,13.53,53.60,1007.79,1989.00,1323.02,1609.49,1749.00,600.34,575.18,10.36,0000 0000 0000 0000 000000
2018-08-16 06:39:51,0.02,8.43,0.00,31.25,34.75,37.15,13.52,53.67,1007.47,1988.98,1323.00,1609.09,1748.99,600.29,575.00,10.41,0000 0000 0000 0000 000000
2018-08-16 06:44:52,0.00,8.43,0.00,31.27,34.77,37.16,13.49,53.67,1007.40,1988.96,1323.00,1609.00,1748.89,600.07,574.76,10.46,0000 0000 0000 0000 000000
2018-08-16 06:49:54,0.02,8.43,0.00,31.27,34.78,37.18,13.48,53.63,1007.38,1988.93,1322.99,1609.00,1748.26,599.59,574.11,10.51,0000 0000 0000 0000 000000
2018-08-16 06:54:55,0.00,8.43,0.00,31.27,34.80,37.19,13.48,53.68,1007.35,1988.87,1322.98,1608.99,1748.05,599.60,574.15,10.56,0000 0000 0000 0000 000000
2018-08-16 06:59:57,-0.03,8.43,0.00,31.29,34.80,37.20,13.49,53.55,1007.37,1988.51,1322.82,1608.80,1748.00,599.86,574.36,10.61,0000 0000 0000 0000 000000
2018-08-16 07:04:58,0.04,8.43,0.00,31.30,34.82,37.21,13.51,53.80,1007.36,1988.33,1322.59,1608.35,1748.00,600.09,574.56,10.66,0000 0000 0000 0000 000000
2018-08-16 07:09:59,0.01,8.43,0.00,31.31,34.83,37.24,13.47,53.67,1007.35,1988.19,1322.24,1608.06,1747.97,599.59,574.09,10.71,0000 0000 0000 0000 000000
2018-08-16 07:15:00,0.01,8.43,0.00,31.32,34.85,37.25,13.54,53.63,1007.34,1988.08,1322.04,1608.00,1747.83,600.18,574.64,10.76,0000 0000 0000 0000 000000
2018-08-16 07:20:01,0.02,8.43,0.00,31.32,34.85,37.26,13.50,53.68,1007.34,1988.04,1322.01,1608.00,1747.42,599.91,574.39,10.81,0000 0000 0000 0000 000000
2018-08-16 07:25:03,0.00,8.43,0.00,31.32,34.87,37.27,13.52,53.78,1007.34,1988.01,1322.00,1607.99,1747.06,599.90,574.36,10.86,0000 0000 0000 0000 000000
2018-08-16 07:30:04,0.01,8.43,0.00,31.34,34.88,37.28,13.59,53.77,1007.34,1988.01,1322.00,1607.96,1747.00,600.01,574.48,10.91,0000 0000 0000 0000 000000
2018-08-16 07:35:04,0.01,8.43,0.00,31.35,34.90,37.29,13.49,53.75,1007.35,1988.01,1321.97,1607.85,1747.00,600.01,574.53,10.96,0000 0000 0000 0000 000000
2018-08-16 07:40:06,0.02,8.43,0.00,31.35,34.90,37.30,13.49,53.74,1007.40,1988.03,1321.87,1607.66,1747.00,600.23,574.65,11.01,0000 0000 0000 0000 000000
2018-08-16 07:45:07,0.14,8.44,0.00,31.37,34.92,37.32,13.51,53.87,1007.55,1988.23,1321.16,1607.15,1747.00,600.13,574.55,11.06,0000 0000 0000 0000 000000
2018-08-16 07:50:08,0.01,8.44,0.00,31.37,34.92,37.32,13.49,53.88,1007.76,1988.47,1321.06,1607.00,1746.98,599.84,574.48,11.11,0000 0000 0000 0000 000000
2018-08-16 07:55:10,-0.01,8.44,0.00,31.37,34.93,37.33,13.51,53.88,1007.82,1988.30,1321.05,1606.97,1746.76,600.33,574.95,11.16,0000 0000 0000 0000 000000
2018-08-16 08:00:11,0.05,8.44,0.00,31.39,34.94,37.34,13.51,53.88,1007.83,1988.40,1321.04,1606.80,1746.40,600.24,574.82,11.21,0000 0000 0000 0000 000000
2018-08-16 08:05:12,0.03,8.45,0.00,31.40,34.95,37.35,13.48,53.84,1007.83,1988.30,1321.00,1606.24,1746.08,599.91,574.42,11.26,0000 0000 0000 0000 000000
2018-08-16 08:10:13,0.04,8.45,0.00,31.40,34.95,37.35,13.48,53.74,1007.83,1988.42,1321.00,1606.05,1746.01,600.00,574.60,11.31,0000 0000 0000 0000 000000
2018-08-16 08:15:14,0.05,8.45,0.00,31.40,34.95,37.36,13.53,53.68,1007.83,1988.21,1320.65,1605.81,1745.71,599.80,574.42,11.36,0000 0000 0000 0000 000000
2018-08-16 08:20:16,0.08,8.45,0.00,31.40,34.97,37.37,13.52,53.78,1007.83,1988.23,1320.01,1605.29,1745.15,600.18,574.76,11.41,0000 0000 0000 0000 000000
2018-08-16 08:25:16,0.00,8.46,0.00,31.40,34.97,37.38,13.47,53.76,1007.83,1988.18,1320.00,1605.05,1745.02,599.78,574.48,11.46,0000 0000 0000 0000 000000
2018-08-16 08:30:18,0.00,8.46,0.00,31.40,34.98,37.39,13.48,53.77,1007.83,1988.15,1320.00,1605.00,1745.00,599.90,574.36,11.51,0000 0000 0000 0000 000000
2018-08-16 08:35:19,-0.00,8.46,0.00,31.41,34.98,37.39,13.57,53.70,1007.83,1988.17,1320.00,1605.00,1745.00,600.12,574.54,11.56,0000 0000 0000 0000 000000
2018-08-16 08:40:20,0.00,8.46,0.00,31.42,35.00,37.40,13.49,53.67,1007.83,1988.12,1320.00,1604.94,1744.96,599.96,574.55,11.61,0000 0000 0000 0000 000000
2018-08-16 08:45:22,0.04,8.46,0.00,31.43,35.00,37.40,13.42,53.67,1007.83,1988.07,1320.00,1604.59,1744.79,599.61,574.27,11.66,0000 0000 0000 0000 000000
2018-08-16 08:50:23,0.04,8.46,0.00,31.46,35.00,37.41,13.54,53.65,1007.83,1988.01,1320.00,1604.11,1744.26,600.10,574.60,11.71,0000 0000 0000 0000 000000
2018-08-16 08:55:25,0.01,8.46,0.00,31.48,35.01,37.41,13.49,53.69,1007.83,1988.01,1320.00,1604.01,1744.07,600.20,574.59,11.76,0000 0000 0000 0000 000000
2018-08-16 09:00:26,0.00,8.46,0.00,31.50,35.02,37.41,13.44,53.64,1007.83,1988.00,1320.00,1604.00,1744.01,599.90,574.33,11.81,0000 0000 0000 0000 000000
2018-08-16 09:05:27,0.00,8.46,0.00,31.52,35.03,37.42,13.49,53.64,1007.83,1988.01,1320.00,1603.99,1744.00,599.99,574.36,11.87,0000 0000 0000 0000 000000
2018-08-16 09:10:28,0.03,8.46,0.00,31.52,35.05,37.44,13.53,53.70,1007.83,1988.00,1320.00,1603.71,1743.93,599.95,574.33,11.92,0000 0000 0000 0000 000000
2018-08-16 09:15:30,0.05,8.46,0.00,31.52,35.05,37.45,13.44,53.73,1007.83,1988.00,1319.97,1603.14,1743.49,600.15,574.37,11.97,0000 0000 0000 0000 000000
2018-08-16 09:20:31,0.02,8.47,0.00,31.52,35.06,37.46,13.53,53.58,1007.83,1987.99,1319.95,1603.02,1743.11,600.43,574.76,12.02,0000 0000 0000 0000 000000
2018-08-16 09:25:32,0.01,8.47,0.00,31.53,35.07,37.47,13.49,53.67,1007.83,1987.99,1319.87,1603.00,1743.01,599.72,574.14,12.07,0000 0000 0000 0000 000000
2018-08-16 09:30:34,0.02,8.47,0.00,31.53,35.08,37.47,13.49,53.62,1007.83,1987.97,1319.55,1603.00,1743.00,599.85,574.10,12.12,0000 0000 0000 0000 000000
2018-08-16 09:35:35,0.02,8.47,0.00,31.53,35.09,37.49,13.55,53.66,1007.84,1987.97,1319.17,1602.97,1743.00,600.19,574.57,12.17,0000 0000 0000 0000 000000
2018-08-16 09:40:36,0.02,8.47,0.00,31.54,35.10,37.50,13.50,53.68,1007.85,1987.96,1319.01,1602.82,1742.97,600.11,574.43,12.22,0000 0000 0000 0000 000000
2018-08-16 09:45:37,0.05,8.47,0.00,31.54,35.10,37.50,13.53,53.62,1008.02,1987.97,1319.00,1602.32,1742.78,599.99,574.43,12.27,0000 0000 0000 0000 000000
2018-08-16 09:50:39,0.04,8.47,0.00,31.55,35.11,37.52,13.47,53.78,1008.27,1987.97,1318.99,1602.02,1742.17,600.11,574.55,12.32,0000 0000 0000 0000 000000
2018-08-16 09:55:40,0.00,8.47,0.00,31.55,35.12,37.52,13.49,53.68,1008.31,1987.89,1318.84,1601.99,1742.00,600.01,574.55,12.37,0000 0000 0000 0000 000000
2018-08-16 10:00:41,0.05,8.48,0.00,31.55,35.12,37.53,13.56,53.70,1008.38,1987.93,1318.33,1601.96,1742.00,600.17,574.76,12.42,0000 0000 0000 0000 000000
2018-08-16 10:05:43,0.05,8.48,0.00,31.54,35.13,37.53,13.51,53.81,1008.65,1987.95,1318.11,1601.54,1741.97,599.93,574.77,12.47,0000 0000 0000 0000 000000
2018-08-16 10:10:44,0.04,8.48,0.00,31.53,35.13,37.53,13.49,53.68,1008.78,1987.91,1318.01,1601.04,1741.61,599.76,574.65,12.52,0000 0000 0000 0000 000000
2018-08-16 10:15:45,-0.02,8.48,0.00,31.52,35.14,37.55,13.52,53.63,1008.77,1987.76,1318.00,1601.00,1741.05,600.19,575.07,12.57,0000 0000 0000 0000 000000
2018-08-16 10:20:46,-0.02,8.48,0.00,31.52,35.15,37.55,13.57,53.71,1008.74,1987.53,1317.99,1600.96,1741.00,599.81,574.72,12.62,0000 0000 0000 0000 000000
2018-08-16 10:25:48,0.04,8.48,0.00,31.52,35.15,37.55,13.54,53.73,1008.78,1987.53,1317.94,1600.69,1741.00,600.01,575.01,12.67,0000 0000 0000 0000 000000
2018-08-16 10:30:49,0.10,8.48,0.00,31.51,35.15,37.57,13.46,53.72,1008.77,1987.68,1317.59,1600.22,1740.89,600.03,575.01,12.72,0000 0000 0000 0000 000000
2018-08-16 10:35:50,0.05,8.49,0.00,31.50,35.15,37.57,13.50,53.76,1008.71,1987.57,1317.07,1600.01,1740.19,599.85,574.76,12.77,0000 0000 0000 0000 000000
2018-08-16 10:40:51,-0.02,8.49,0.00,31.50,35.15,37.57,13.46,53.65,1008.79,1987.60,1317.00,1600.00,1740.00,600.14,575.03,12.82,0000 0000 0000 0000 000000
2018-08-16 10:45:52,0.03,8.49,0.00,31.49,35.15,37.58,13.55,53.58,1008.80,1987.67,1317.00,1599.94,1740.00,600.18,575.17,12.87,0000 0000 0000 0000 000000
2018-08-16 10:50:53,0.04,8.49,0.00,31.48,35.15,37.57,13.54,53.62,1008.73,1987.61,1316.98,1599.50,1739.99,599.92,574.95,12.92,0000 0000 0000 0000 000000
2018-08-16 10:55:55,0.04,8.49,0.00,31.47,35.15,37.56,13.53,53.67,1008.78,1987.63,1316.94,1599.05,1739.77,599.79,574.81,12.97,0000 0000 0000 0000 000000
2018-08-16 11:00:56,0.04,8.50,0.00,31.48,35.15,37.55,13.47,53.67,1008.79,1987.43,1316.51,1599.00,1739.16,599.97,574.90,13.02,0000 0000 0000 0000 000000
2018-08-16 11:05:58,0.04,8.50,0.00,31.51,35.15,37.52,13.51,53.55,1008.68,1987.40,1316.04,1599.00,1739.00,600.06,574.96,13.07,0000 0000 0000 0000 000000
2018-08-16 11:10:59,-0.02,8.50,0.00,31.56,35.15,37.50,13.47,53.49,1008.63,1987.33,1316.00,1598.96,1739.00,600.42,575.15,13.12,0000 0000 0000 0000 000000
2018-08-16 11:16:00,0.04,8.50,0.00,31.61,35.15,37.49,13.48,53.62,1008.44,1987.49,1316.00,1598.78,1738.97,600.31,574.79,13.17,0000 0000 0000 0000 000000
2018-08-16 11:21:02,0.03,8.50,0.00,31.68,35.15,37.48,13.46,53.55,1008.46,1987.39,1316.00,1598.25,1738.66,600.08,574.50,13.22,0000 0000 0000 0000 000000
2018-08-16 11:26:03,0.01,8.50,0.00,31.74,35.16,37.49,13.51,53.49,1008.65,1987.24,1315.89,1598.01,1738.12,600.12,574.66,13.27,0000 0000 0000 0000 000000
2018-08-16 11:31:04,0.05,8.50,0.00,31.78,35.17,37.51,13.51,53.27,1008.44,1987.13,1315.19,1598.00,1738.00,600.38,574.54,13.32,0000 0000 0000 0000 000000
2018-08-16 11:36:06,0.01,8.51,0.00,31.80,35.17,37.55,13.48,53.39,1008.43,1987.09,1315.01,1597.82,1737.98,599.95,574.13,13.37,0000 0000 0000 0000 000000
2018-08-16 11:41:07,0.06,8.51,0.00,31.79,35.18,37.57,13.49,53.48,1008.46,1987.05,1315.00,1597.25,1737.69,600.28,574.38,13.42,0000 0000 0000 0000 000000
2018-08-16 11:46:08,0.02,8.51,0.00,31.78,35.20,37.59,13.54,53.47,1008.58,1987.02,1315.00,1597.01,1737.14,600.63,574.85,13.47,0000 0000 0000 0000 000000
2018-08-16 11:51:10,0.01,8.51,0.00,31.77,35.20,37.60,13.46,53.34,1008.74,1987.01,1314.94,1597.00,1737.01,599.72,573.98,13.52,0000 0000 0000 0000 000000
2018-08-16 11:56:11,0.02,8.51,0.00,31.73,35.20,37.62,13.48,53.38,1008.80,1987.01,1314.68,1596.97,1737.00,600.24,574.63,13.57,0000 0000 0000 0000 000000
2018-08-16 12:01:12,0.06,8.51,0.00,31.69,35.20,37.64,13.43,53.42,1008.80,1987.00,1314.15,1596.69,1736.97,599.86,574.40,13.62,0000 0000 0000 0000 000000
2018-08-16 12:06:14,0.05,8.52,0.00,31.64,35.20,37.65,13.49,53.38,1008.80,1987.00,1314.00,1596.13,1736.66,599.91,574.60,13.67,0000 0000 0000 0000 000000
2018-08-16 12:11:15,0.03,8.52,0.00,31.60,35.21,37.65,13.47,53.41,1008.81,1987.00,1314.00,1596.01,1736.16,599.89,574.73,13.72,0000 0000 0000 0000 000000
2018-08-16 12:16:17,0.00,8.52,0.00,31.56,35.21,37.65,13.50,53.49,1008.81,1987.00,1313.97,1596.00,1736.01,599.88,574.82,13.77,0000 0000 0000 0000 000000
2018-08-16 12:21:18,0.01,8.52,0.00,31.53,35.21,37.66,13.47,53.45,1008.81,1987.00,1313.86,1595.98,1736.00,600.10,574.89,13.82,0000 0000 0000 0000 000000
2018-08-16 12:26:19,0.08,8.52,0.00,31.51,35.20,37.65,13.51,53.62,1008.82,1987.00,1313.31,1595.63,1735.98,599.72,574.62,13.87,0000 0000 0000 0000 000000
2018-08-16 12:31:20,0.06,8.53,0.00,31.50,35.20,37.65,13.53,53.60,1008.81,1987.00,1313.04,1595.09,1735.66,599.96,574.91,13.92,0000 0000 0000 0000 000000
2018-08-16 12:36:21,0.02,8.53,0.00,31.48,35.20,37.65,13.50,53.75,1008.81,1987.00,1313.00,1595.00,1735.09,599.80,574.83,13.97,0000 0000 0000 0000 000000
2018-08-16 12:41:23,0.00,8.53,0.00,31.46,35.20,37.64,13.49,53.71,1008.80,1987.00,1313.00,1595.00,1735.01,599.58,574.78,14.02,0000 0000 0000 0000 000000
2018-08-16 12:46:24,0.00,8.53,0.00,31.45,35.20,37.64,13.46,53.80,1008.82,1987.00,1312.97,1594.96,1735.00,599.64,574.71,14.08,0000 0000 0000 0000 000000
2018-08-16 12:51:25,0.04,8.53,0.00,31.42,35.20,37.63,13.58,53.78,1008.82,1987.00,1312.81,1594.70,1734.98,600.31,575.40,14.13,0000 0000 0000 0000 000000
2018-08-16 12:56:26,0.08,8.53,0.00,31.41,35.18,37.63,13.51,53.44,1008.96,1987.00,1312.26,1594.20,1734.87,600.16,575.38,14.18,0000 0000 0000 0000 000000